{"data":{"norad_id":53933,"intl_designator":"2022-119AZ","name":"STARLINK-4782","alt_names":[],"object_type":"PAYLOAD","status":"ACTIVE","operator":null,"country":"US","launch_date":"2022-09-24","launch_site_code":"AFETR","launch_vehicle":null,"mission":null,"orbit_class":"UNKNOWN","rcs_meters":null,"size_class":null,"mass_kg":null,"dimensions":null,"purposes":["comms"],"wikipedia_slug":null,"has_3d_model":false,"image_url":null,"decayed_at":null,"tle_current":{"epoch":"2026-09-20T22:36:38.793888Z","epoch_age_seconds":48364,"freshness":"FRESH","line1":"1 53933U 22119AZ  26263.94211567  .00000794  00000+0  68040-4 0  9993","line2":"2 53933  53.1593 146.7965 0001584  83.8552 276.2620 15.08820138221442","mean_motion":15.08820138,"eccentricity":0.0001584,"inclination_deg":53.1593,"raan_deg":146.7965,"arg_perigee_deg":83.8552,"mean_anomaly_deg":276.262,"bstar":6.804e-5,"rev_number":22144,"period_min":95.438811010885,"perigee_km":538.70829794796,"apogee_km":540.89990168839,"semimajor_km":6917.9410998182,"source":"CELESTRAK","updated_at":"2026-09-21T09:00:33.038040Z"}}}